EW6866 Weather Reports


time (UTC)temp
C
wind
direction
speed
KPH
gust
KPH
rain 1hr
cm
rain 24hr
cm
rain mn
cm
humidity
%
barometer
mb
20260903213004 35 190 1.6 9.7 0.00 0.00 0.00 65 1013.3
20260903211504 35 180 1.6 8.0 0.00 0.00 0.00 62 1013.5
20260903210005 36 164 0.0 8.0 0.00 0.00 0.00 62 1013.6
20260903204504 35 178 1.6 11.3 0.00 0.00 0.00 62 1013.6
20260903203004 36 182 1.6 4.8 0.00 0.00 0.00 62 1013.7
20260903201504 36 171 1.6 6.4 0.00 0.00 0.00 61 1014.0
20260903200026 36 173 0.0 8.0 0.00 0.00 0.00 61 1014.2
20260903194504 36 159 1.6 9.7 0.00 0.00 0.00 63 1014.3
20260903193005 35 196 1.6 8.0 0.00 0.00 0.00 63 1014.5
20260903191504 35 174 1.6 9.7 0.00 0.00 0.00 65 1014.5
20260903190005 35 178 1.6 4.8 0.00 0.00 0.00 65 1014.7
20260903184504 35 236 1.6 9.7 0.00 0.00 0.00 67 1014.7
20260903183004 35 162 1.6 6.4 0.00 0.00 0.00 66 1014.8
20260903181504 35 174 1.6 8.0 0.00 0.00 0.00 67 1014.8
20260903180004 35 198 1.6 11.3 0.00 0.00 0.00 68 1015.0
20260903174525 35 223 1.6 8.0 0.00 0.00 0.00 69 1015.3
20260903173004 34 216 1.6 8.0 0.00 0.00 0.00 70 1015.3
20260903171504 34 163 1.6 6.4 0.00 0.00 0.00 72 1015.5
20260903170004 34 158 1.6 8.0 0.00 0.00 0.00 71 1015.7
20260903164525 34 174 0.0 6.4 0.00 0.00 0.00 71 1015.8
20260903163004 33 186 1.6 4.8 0.00 0.00 0.00 73 1015.9
20260903161504 33 198 1.6 8.0 0.00 0.00 0.00 72 1015.9
20260903160025 33 247 1.6 8.0 0.00 0.00 0.00 75 1016.0
20260903154504 32 219 1.6 8.0 0.00 0.00 0.00 75 1016.3
20260903153004 32 186 1.6 4.8 0.00 0.00 0.00 76 1016.5
20260903151525 32 280 0.0 8.0 0.00 0.00 0.00 78 1016.5
20260903150004 31 159 0.0 4.8 0.00 0.00 0.00 80 1016.4
20260903144503 30 174 0.0 3.2 0.00 0.00 0.00 84 1016.3
20260903143004 30 197 0.0 6.4 0.00 0.00 0.00 83 1016.4
20260903141504 29 181 0.0 4.8 0.00 0.00 0.00 84 1016.5
20260903140004 28 187 0.0 3.2 0.00 0.00 0.00 86 1016.2
20260903134504 28 169 0.0 6.4 0.00 0.00 0.00 87 1016.2
20260903133004 27 243 0.0 4.8 0.00 0.00 0.00 89 1016.2
20260903131503 27 159 0.0 4.8 0.00 0.00 0.00 91 1016.4
20260903130025 26 178 0.0 3.2 0.00 0.00 0.00 93 1016.5
20260903124504 26 160 0.0 4.8 0.00 0.00 0.00 95 1016.5
20260903123004 26 178 0.0 3.2 0.00 0.00 0.00 97 1016.7
20260903121504 25 141 0.0 1.6 0.00 0.00 0.00 98 1016.7
20260903120005 25 0 0.0 0.0 0.00 0.00 0.00 98 1016.7
20260903114503 24 0 0.0 0.0 0.00 0.00 0.00 98 1016.6
20260903113004 24 0 0.0 0.0 0.00 0.00 0.00 98 1016.4
20260903111504 24 0 0.0 0.0 0.00 0.00 0.00 98 1016.2
20260903110003 24 0 0.0 0.0 0.00 0.00 0.00 98 1016.0
20260903104504 23 0 0.0 0.0 0.00 0.00 0.00 98 1015.7
20260903103004 24 0 0.0 0.0 0.00 0.00 0.00 98 1015.6
20260903101503 23 0 0.0 0.0 0.00 0.00 0.00 98 1015.6
20260903100004 23 0 0.0 0.0 0.00 0.00 0.00 97 1015.6
20260903094503 24 0 0.0 0.0 0.00 0.00 0.00 97 1015.4
20260903093003 24 0 0.0 0.0 0.00 0.00 0.00 98 1015.5
20260903091504 24 0 0.0 0.0 0.00 0.00 0.00 98 1015.4
20260903090024 24 0 0.0 0.0 0.00 0.00 0.00 97 1015.2
20260903084503 24 0 0.0 0.0 0.00 0.00 0.00 97 1015.2
20260903083004 24 0 0.0 0.0 0.00 0.00 0.00 97 1015.2
20260903081503 24 0 0.0 0.0 0.00 0.00 0.00 97 1015.2
20260903080004 24 0 0.0 0.0 0.00 0.00 0.00 97 1015.2
20260903074505 25 0 0.0 0.0 0.00 0.00 0.00 97 1015.1
20260903073006 25 0 0.0 0.0 0.00 0.00 0.00 97 1015.4
20260903071505 25 0 0.0 0.0 0.00 0.00 0.00 97 1015.1
20260903070005 25 0 0.0 0.0 0.00 0.00 0.00 97 1015.3
20260903064506 25 0 0.0 0.0 0.00 0.00 0.00 97 1015.3
20260903063005 25 0 0.0 0.0 0.00 0.00 0.00 97 1015.4
20260903061505 25 0 0.0 0.0 0.00 0.00 0.00 97 1015.5
20260903060005 25 0 0.0 0.0 0.00 0.00 0.00 97 1015.5
20260903054527 25 0 0.0 0.0 0.00 0.00 0.00 96 1015.5
20260903053005 26 0 0.0 0.0 0.00 0.00 0.00 97 1015.4
20260903051505 26 0 0.0 0.0 0.00 0.00 0.00 97 1015.6
20260903050005 26 0 0.0 0.0 0.00 0.00 0.00 97 1015.8
20260903044526 26 0 0.0 0.0 0.00 0.00 0.00 97 1015.7
20260903043005 26 0 0.0 0.0 0.00 0.00 0.00 96 1015.8
20260903041505 26 0 0.0 0.0 0.00 0.00 0.00 97 1015.8
20260903040008 26 0 0.0 0.0 0.00 0.00 0.00 96 1015.7
20260903034505 26 0 0.0 0.0 0.00 0.00 0.00 96 1015.6
20260903033005 26 0 0.0 0.0 0.00 0.00 0.00 96 1015.7
20260903031505 26 0 0.0 0.0 0.00 0.00 0.00 96 1015.5
20260903030005 26 0 0.0 0.0 0.00 0.00 0.00 95 1015.6
20260903024505 26 0 0.0 0.0 0.00 0.00 0.00 95 1015.7
20260903023004 26 0 0.0 0.0 0.00 0.00 0.00 95 1016.0
20260903021504 26 0 0.0 0.0 0.00 0.00 0.00 94 1016.1
20260903020005 27 0 0.0 0.0 0.00 0.00 0.00 94 1016.2
20260903014504 27 0 0.0 0.0 0.00 0.00 0.00 93 1016.2
20260903013004 27 0 0.0 0.0 0.00 0.00 0.00 93 1016.1
20260903011505 27 0 0.0 0.0 0.00 0.00 0.00 92 1016.1
20260903010004 27 0 0.0 0.0 0.00 0.00 0.00 91 1015.5
20260903004504 27 77 0.0 1.6 0.00 0.00 0.00 90 1015.0
20260903003005 28 66 0.0 1.6 0.00 0.00 0.00 90 1015.0
20260903001504 28 0 0.0 0.0 0.00 0.00 0.00 89 1015.2
20260903000004 28 0 0.0 0.0 0.00 0.00 0.00 88 1015.7
20260902234505 28 65 0.0 1.6 0.00 0.00 0.00 88 1015.9
20260902233026 28 79 0.0 1.6 0.00 0.00 0.00 87 1016.1
20260902231525 29 63 0.0 1.6 0.00 0.00 0.00 87 1016.4
20260902230005 29 71 0.0 1.6 0.00 0.00 0.00 86 1016.0
20260902224505 30 81 0.0 3.2 0.00 0.00 0.00 84 1015.9
20260902223025 30 59 0.0 4.8 0.00 0.00 0.00 82 1016.0
20260902221504 30 59 1.6 3.2 0.00 0.00 0.00 82 1015.8
20260902220005 31 60 1.6 4.8 0.00 0.00 0.00 80 1015.8
20260902214505 31 52 0.0 3.2 0.00 0.00 0.00 80 1015.9